| time (UTC) | temp C | wind direction | speed KPH | gust KPH | rain 1hr cm | rain 24hr cm | rain mn cm | humidity % | barometer mb |
| 20260905123010 | -17 | 0.0 | 0.0 | 0.00 | 0.00 | 0.00 | 1015.9 | ||
| 20260905121504 | -17 | 0.0 | 0.0 | 0.00 | 0.00 | 0.00 | 1015.8 | ||
| 20260905120112 | -17 | 0.0 | 0.0 | 0.00 | 0.00 | 0.00 | 1015.6 | ||
| 20260905114555 | -17 | 0.0 | 0.0 | 0.00 | 0.00 | 0.00 | 1015.6 | ||
| 20260905113049 | -17 | 0.0 | 0.0 | 0.00 | 0.00 | 0.00 | 1015.5 | ||
| 20260905111602 | -17 | 0.0 | 0.0 | 0.00 | 0.00 | 0.00 | 1015.4 | ||
| 20260905110037 | -17 | 0.0 | 0.0 | 0.00 | 0.00 | 0.00 | 1015.3 | ||
| 20260905104532 | -17 | 0.0 | 0.0 | 0.00 | 0.00 | 0.00 | 1015.1 | ||
| 20260905103029 | -17 | 0.0 | 0.0 | 0.00 | 0.00 | 0.00 | 1015.1 | ||
| 20260905101523 | -17 | 0.0 | 0.0 | 0.00 | 0.00 | 0.00 | 1015.2 | ||
| 20260905100022 | 26 | 151 | 0.0 | 3.2 | 0.00 | 0.00 | 0.00 | 85 | 1015.1 |
| 20260905094517 | 26 | 145 | 0.0 | 3.2 | 0.00 | 0.00 | 0.00 | 86 | 1015.1 |
| 20260905093014 | 26 | 152 | 0.0 | 3.2 | 0.00 | 0.00 | 0.00 | 85 | 1015.0 |
| 20260905091511 | 26 | 187 | 0.0 | 1.6 | 0.00 | 0.00 | 0.00 | 87 | 1015.0 |
| 20260905090010 | 25 | 160 | 0.0 | 0.0 | 0.00 | 0.00 | 0.00 | 87 | 1015.1 |
| 20260905084506 | 25 | 159 | 0.0 | 0.0 | 0.00 | 0.00 | 0.00 | 88 | 1015.1 |
| 20260905083104 | 25 | 159 | 0.0 | 0.0 | 0.00 | 0.00 | 0.00 | 89 | 1015.2 |
| 20260905081559 | 26 | 159 | 0.0 | 0.0 | 0.00 | 0.00 | 0.00 | 89 | 1015.2 |
| 20260905080056 | 26 | 159 | 0.0 | 0.0 | 0.00 | 0.00 | 0.00 | 89 | 1015.4 |
| 20260905074558 | 26 | 159 | 0.0 | 0.0 | 0.00 | 0.00 | 0.00 | 89 | 1015.3 |
| 20260905073100 | 26 | 159 | 0.0 | 0.0 | 0.00 | 0.00 | 0.00 | 88 | 1015.3 |
| 20260905071547 | 27 | 158 | 0.0 | 0.0 | 0.00 | 0.00 | 0.00 | 88 | 1015.4 |
| 20260905070044 | 27 | 158 | 0.0 | 0.0 | 0.00 | 0.00 | 0.00 | 87 | 1015.4 |
| 20260905064541 | 27 | 168 | 1.6 | 4.8 | 0.00 | 0.00 | 0.00 | 87 | 1015.4 |
| 20260905063039 | 27 | 156 | 1.6 | 3.2 | 0.00 | 0.00 | 0.00 | 87 | 1015.3 |
| 20260905061535 | 27 | 171 | 0.0 | 3.2 | 0.00 | 0.00 | 0.00 | 87 | 1015.5 |
| 20260905060037 | 27 | 184 | 0.0 | 0.0 | 0.00 | 0.00 | 0.00 | 87 | 1015.6 |
| 20260905054540 | 28 | 184 | 0.0 | 0.0 | 0.00 | 0.00 | 0.00 | 85 | 1015.6 |
| 20260905053025 | 28 | 156 | 0.0 | 3.2 | 0.00 | 0.00 | 0.00 | 85 | 1015.6 |
| 20260905051520 | 28 | 207 | 0.0 | 0.0 | 0.00 | 0.00 | 0.00 | 86 | 1015.6 |
| 20260905050017 | 28 | 162 | 0.0 | 1.6 | 0.00 | 0.00 | 0.00 | 86 | 1015.4 |
| 20260905044518 | 27 | 162 | 0.0 | 0.0 | 0.00 | 0.00 | 0.00 | 86 | 1015.5 |
| 20260905043012 | 28 | 162 | 0.0 | 0.0 | 0.00 | 0.00 | 0.00 | 84 | 1015.6 |
| 20260905041510 | 28 | 156 | 0.0 | 3.2 | 0.00 | 0.00 | 0.00 | 83 | 1015.6 |
| 20260905040107 | 29 | 159 | 1.6 | 4.8 | 0.00 | 0.00 | 0.00 | 83 | 1015.6 |
| 20260905034507 | 29 | 151 | 1.6 | 4.8 | 0.00 | 0.00 | 0.00 | 83 | 1015.6 |
| 20260905033005 | 30 | 169 | 0.0 | 3.2 | 0.00 | 0.00 | 0.00 | 82 | 1015.5 |
| 20260905031506 | 30 | 158 | 1.6 | 4.8 | 0.00 | 0.00 | 0.00 | 80 | 1015.6 |
| 20260905030001 | 30 | 159 | 1.6 | 4.8 | 0.00 | 0.00 | 0.00 | 79 | 1015.5 |
| 20260905024622 | 30 | 164 | 0.0 | 3.2 | 0.00 | 0.00 | 0.00 | 78 | 1015.6 |
| 20260905023110 | 30 | 163 | 0.0 | 3.2 | 0.00 | 0.00 | 0.00 | 78 | 1015.5 |
| 20260905021600 | 30 | 244 | 1.6 | 8.0 | 0.00 | 0.00 | 0.00 | 79 | 1015.2 |
| 20260905020105 | 30 | 182 | 0.0 | 0.0 | 0.00 | 0.00 | 0.00 | 79 | 1015.1 |
| 20260905014557 | 28 | 185 | 0.0 | 3.2 | 0.00 | 0.00 | 0.00 | 81 | 1014.8 |
| 20260905013051 | 29 | 277 | 0.0 | 0.0 | 0.00 | 0.00 | 0.00 | 81 | 1014.6 |
| 20260905011549 | 29 | 277 | 0.0 | 0.0 | 0.00 | 0.00 | 0.00 | 81 | 1014.5 |
| 20260905010045 | 30 | 277 | 0.0 | 0.0 | 0.00 | 0.00 | 0.00 | 80 | 1014.3 |
| 20260905004544 | 30 | 277 | 0.0 | 0.0 | 0.00 | 0.00 | 0.00 | 79 | 1014.2 |
| 20260905003041 | 31 | 277 | 0.0 | 0.0 | 0.00 | 0.00 | 0.00 | 78 | 1014.2 |
| 20260905001540 | 32 | 277 | 0.0 | 0.0 | 0.00 | 0.00 | 0.00 | 76 | 1014.1 |
| 20260905000039 | 33 | 277 | 0.0 | 0.0 | 0.00 | 0.00 | 0.00 | 72 | 1014.2 |
| 20260904234537 | 35 | 277 | 0.0 | 1.6 | 0.00 | 0.00 | 0.00 | 69 | 1014.1 |
| 20260904233040 | 35 | 292 | 0.0 | 3.2 | 0.00 | 0.00 | 0.00 | 67 | 1014.1 |
| 20260904231536 | 35 | 19 | 0.0 | 3.2 | 0.00 | 0.00 | 0.00 | 66 | 1014.0 |
| 20260904230032 | 36 | 309 | 0.0 | 8.0 | 0.00 | 0.00 | 0.00 | 65 | 1014.0 |
| 20260904224529 | 36 | 163 | 1.6 | 9.7 | 0.00 | 0.00 | 0.00 | 64 | 1014.0 |
| 20260904223030 | 37 | 268 | 1.6 | 8.0 | 0.00 | 0.00 | 0.00 | 61 | 1014.1 |
| 20260904221524 | 38 | 249 | 3.2 | 6.4 | 0.00 | 0.00 | 0.00 | 60 | 1014.1 |
| 20260904220021 | 37 | 282 | 0.0 | 6.4 | 0.00 | 0.00 | 0.00 | 61 | 1014.3 |
| 20260904214532 | 37 | 357 | 4.8 | 12.9 | 0.00 | 0.00 | 0.00 | 61 | 1014.4 |
| 20260904213030 | 38 | 251 | 1.6 | 4.8 | 0.00 | 0.00 | 0.00 | 61 | 1014.5 |
| 20260904211518 | 38 | 321 | 0.0 | 4.8 | 0.00 | 0.00 | 0.00 | 60 | 1014.8 |
| 20260904210022 | 37 | 306 | 0.0 | 14.5 | 0.00 | 0.00 | 0.00 | 59 | 1015.0 |
| 20260904204514 | 38 | 186 | 1.6 | 9.7 | 0.00 | 0.00 | 0.00 | 58 | 1015.2 |
| 20260904203006 | 37 | 246 | 3.2 | 8.0 | 0.00 | 0.00 | 0.00 | 61 | 1015.4 |
| 20260904201505 | 37 | 141 | 3.2 | 9.7 | 0.00 | 0.00 | 0.00 | 60 | 1015.5 |
| 20260904200004 | 37 | 256 | 0.0 | 6.4 | 0.00 | 0.00 | 0.00 | 63 | 1015.7 |
| 20260904194608 | 36 | 178 | 1.6 | 9.7 | 0.00 | 0.00 | 0.00 | 64 | 1015.8 |
| 20260904193053 | 35 | 336 | 0.0 | 6.4 | 0.00 | 0.00 | 0.00 | 68 | 1016.1 |
| 20260904191551 | 36 | 21 | 3.2 | 11.3 | 0.00 | 0.00 | 0.00 | 65 | 1016.2 |
| 20260904190040 | 35 | 353 | 6.4 | 12.9 | 0.00 | 0.00 | 0.00 | 65 | 1016.4 |
| 20260904184534 | 36 | 6 | 6.4 | 12.9 | 0.00 | 0.00 | 0.00 | 65 | 1016.4 |
| 20260904183030 | 35 | 306 | 0.0 | 11.3 | 0.00 | 0.00 | 0.00 | 66 | 1016.4 |
| 20260904181522 | 35 | 353 | 3.2 | 14.5 | 0.00 | 0.00 | 0.00 | 67 | 1016.5 |
| 20260904180015 | 35 | 347 | 1.6 | 11.3 | 0.00 | 0.00 | 0.00 | 70 | 1016.7 |
| 20260904174516 | 35 | 242 | 0.0 | 12.9 | 0.00 | 0.00 | 0.00 | 68 | 1016.8 |
| 20260904173005 | 35 | 282 | 1.6 | 12.9 | 0.00 | 0.00 | 0.00 | 69 | 1017.0 |
| 20260904171609 | 35 | 348 | 4.8 | 12.9 | 0.00 | 0.00 | 0.00 | 69 | 1017.2 |
| 20260904170052 | 34 | 301 | 4.8 | 11.3 | 0.00 | 0.00 | 0.00 | 71 | 1017.2 |
| 20260904164553 | 34 | 298 | 6.4 | 11.3 | 0.00 | 0.00 | 0.00 | 71 | 1017.4 |
| 20260904163041 | 33 | 345 | 11.3 | 17.7 | 0.00 | 0.00 | 0.00 | 71 | 1017.4 |
| 20260904161539 | 33 | 320 | 3.2 | 12.9 | 0.00 | 0.00 | 0.00 | 73 | 1017.4 |
| 20260904160028 | 33 | 277 | 4.8 | 12.9 | 0.00 | 0.00 | 0.00 | 74 | 1017.5 |
| 20260904154522 | 32 | 348 | 3.2 | 12.9 | 0.00 | 0.00 | 0.00 | 76 | 1017.5 |
| 20260904153020 | 32 | 350 | 4.8 | 16.1 | 0.00 | 0.00 | 0.00 | 76 | 1017.5 |
| 20260904151512 | 31 | 357 | 4.8 | 12.9 | 0.00 | 0.00 | 0.00 | 77 | 1017.5 |
| 20260904150024 | 31 | 357 | 1.6 | 11.3 | 0.00 | 0.00 | 0.00 | 78 | 1017.5 |
| 20260904144505 | 31 | 15 | 1.6 | 9.7 | 0.00 | 0.00 | 0.00 | 78 | 1017.5 |
| 20260904143002 | 31 | 260 | 3.2 | 6.4 | 0.00 | 0.00 | 0.00 | 78 | 1017.5 |
| 20260904141609 | 30 | 303 | 1.6 | 9.7 | 0.00 | 0.00 | 0.00 | 79 | 1017.3 |
| 20260904140055 | 30 | 315 | 3.2 | 9.7 | 0.00 | 0.00 | 0.00 | 79 | 1017.2 |
| 20260904134557 | 30 | 242 | 1.6 | 6.4 | 0.00 | 0.00 | 0.00 | 79 | 1017.3 |
| 20260904133046 | 28 | 216 | 3.2 | 6.4 | 0.00 | 0.00 | 0.00 | 80 | 1017.2 |
| 20260904131643 | 28 | 230 | 0.0 | 6.4 | 0.00 | 0.00 | 0.00 | 80 | 1017.3 |
| 20260904130040 | 28 | 251 | 0.0 | 8.0 | 0.00 | 0.00 | 0.00 | 80 | 1017.3 |
| 20260904124538 | 27 | 216 | 0.0 | 1.6 | 0.00 | 0.00 | 0.00 | 81 | 1017.2 |